SAS2901 LFPG-EKCH

Flight info

Callsign SAS2901
Flight time 1h 28m
Altitude 39000
Route NURMO6G/09R NURMO DCT CMB DCT VEKIN DCT ADUTO DCT VICOT DCT EEL DCT TALSA P729 TUDLO TUDLO4C
Aircraft A20N/M-SDE2E3FGHIRWXY/LB1

Departure

Time 2026-05-08 21:43
Airport Charles de Gaulle International Airport (LFPG)

Arrival

Time 2026-05-08 23:11
Airport Copenhagen Kastrup Airport (EKCH)
Time Latitude Longitude Altitude Speed Heading
2026-05-08 21:25 49.01452 2.54476 357 ft 0 kts 90°
2026-05-08 21:30 49.01452 2.54473 357 ft 2 kts 90°
2026-05-08 21:30 49.01452 2.54434 359 ft 4 kts 95°
2026-05-08 21:30 49.01457 2.54394 363 ft 4 kts 116°
2026-05-08 21:30 49.01471 2.54372 366 ft 2 kts 173°
2026-05-08 21:31 49.01472 2.54371 363 ft 0 kts 174°
2026-05-08 21:33 49.01441 2.54375 360 ft 9 kts 181°
2026-05-08 21:33 49.01368 2.54347 361 ft 15 kts 201°
2026-05-08 21:33 49.01285 2.54320 358 ft 20 kts 178°
2026-05-08 21:33 49.01254 2.54334 353 ft 2 kts 157°
2026-05-08 21:34 49.01219 2.54333 357 ft 9 kts 209°
2026-05-08 21:34 49.01188 2.54171 346 ft 20 kts 268°
2026-05-08 21:34 49.01180 2.53965 363 ft 21 kts 265°
2026-05-08 21:34 49.01213 2.53734 361 ft 24 kts 322°
2026-05-08 21:35 49.01366 2.53619 361 ft 26 kts 343°
2026-05-08 21:35 49.01497 2.53613 361 ft 1 kts
2026-05-08 21:35 49.01529 2.53614 359 ft 0 kts
2026-05-08 21:35 49.01551 2.53615 360 ft 6 kts 355°
2026-05-08 21:36 49.01619 2.53603 357 ft 14 kts 352°
2026-05-08 21:36 49.01682 2.53591 361 ft 3 kts 353°
2026-05-08 21:36 49.01731 2.53581 359 ft 10 kts 344°
2026-05-08 21:36 49.01775 2.53487 366 ft 14 kts 273°
2026-05-08 21:37 49.01773 2.53323 365 ft 19 kts 264°
2026-05-08 21:37 49.01771 2.53092 359 ft 22 kts 288°
2026-05-08 21:37 49.01745 2.52861 362 ft 25 kts 268°
2026-05-08 21:37 49.01775 2.52730 365 ft 0 kts 310°
2026-05-08 21:38 49.01787 2.52707 360 ft 7 kts 310°
2026-05-08 21:38 49.01800 2.52685 357 ft 2 kts 310°
2026-05-08 21:38 49.01814 2.52629 363 ft 9 kts 277°
2026-05-08 21:39 49.01810 2.52487 362 ft 17 kts 262°
2026-05-08 21:39 49.01876 2.52333 357 ft 21 kts 308°
2026-05-08 21:39 49.01916 2.52143 358 ft 19 kts 321°
2026-05-08 21:39 49.01961 2.52114 364 ft 2 kts 351°
2026-05-08 21:40 49.02006 2.52108 357 ft 10 kts 356°
2026-05-08 21:40 49.02093 2.52149 363 ft 17 kts 47°
2026-05-08 21:40 49.02116 2.52263 360 ft 0 kts 85°
2026-05-08 21:42 49.02125 2.52416 358 ft 45 kts 85°
2026-05-08 21:42 49.02171 2.53258 357 ft 113 kts 86°
2026-05-08 21:42 49.02256 2.54760 369 ft 166 kts 83°
2026-05-08 21:43 49.02446 2.56510 908 ft 163 kts 65°
2026-05-08 21:43 49.03264 2.57483 1739 ft 150 kts 20°
2026-05-08 21:43 49.04264 2.57754 2530 ft 141 kts 12°
2026-05-08 21:43 49.05200 2.58025 3249 ft 134 kts 17°
2026-05-08 21:44 49.06120 2.58415 3877 ft 148 kts 13°
2026-05-08 21:44 49.07254 2.58572 4261 ft 179 kts
2026-05-08 21:44 49.08598 2.58667 4610 ft 207 kts
2026-05-08 21:44 49.10092 2.58926 5070 ft 224 kts 10°
2026-05-08 21:45 49.11649 2.59436 5631 ft 236 kts 18°
2026-05-08 21:45 49.13195 2.60434 6090 ft 256 kts 26°
2026-05-08 21:45 49.14842 2.61711 6718 ft 272 kts 28°
2026-05-08 21:45 49.16513 2.63146 7593 ft 278 kts 30°
2026-05-08 21:46 49.18192 2.64666 8568 ft 282 kts 31°
2026-05-08 21:46 49.19887 2.66236 9431 ft 288 kts 30°
2026-05-08 21:46 49.21627 2.67855 9938 ft 296 kts 30°
2026-05-08 21:46 49.23392 2.69491 10072 ft 297 kts 30°
2026-05-08 21:47 49.25198 2.71109 10092 ft 310 kts 25°
2026-05-08 21:47 49.27318 2.72214 10098 ft 333 kts 11°
2026-05-08 21:47 49.29622 2.72795 10085 ft 337 kts
2026-05-08 21:47 49.31955 2.73076 10084 ft 336 kts
2026-05-08 21:48 49.34294 2.73195 10094 ft 336 kts 360°
2026-05-08 21:48 49.36647 2.73250 10446 ft 341 kts 359°
2026-05-08 21:48 49.39034 2.73300 11394 ft 343 kts 360°
2026-05-08 21:48 49.41428 2.73369 12396 ft 346 kts
2026-05-08 21:49 49.43853 2.73461 13330 ft 351 kts
2026-05-08 21:49 49.46310 2.73573 14215 ft 356 kts
2026-05-08 21:49 49.48804 2.73700 15020 ft 361 kts
2026-05-08 21:49 49.51329 2.73835 15843 ft 366 kts
2026-05-08 21:50 49.53887 2.73975 16661 ft 370 kts
2026-05-08 21:50 49.56472 2.74117 17476 ft 374 kts
2026-05-08 21:50 49.59092 2.74261 18275 ft 379 kts
2026-05-08 21:50 49.61739 2.74405 18814 ft 381 kts
2026-05-08 21:51 49.64392 2.74548 19053 ft 382 kts
2026-05-08 21:51 49.67048 2.74691 19099 ft 383 kts
2026-05-08 21:51 49.69723 2.74834 19303 ft 386 kts
2026-05-08 21:51 49.72412 2.74979 20068 ft 386 kts
2026-05-08 21:52 49.75051 2.75121 20966 ft 383 kts
2026-05-08 21:52 49.77719 2.75265 21731 ft 385 kts
2026-05-08 21:52 49.80404 2.75410 22430 ft 387 kts
2026-05-08 21:52 49.83107 2.75585 23133 ft 390 kts
2026-05-08 21:53 49.85725 2.76692 23779 ft 395 kts 25°
2026-05-08 21:53 49.88043 2.79023 24283 ft 401 kts 36°
2026-05-08 21:53 49.90177 2.81855 24756 ft 406 kts 39°
2026-05-08 21:53 49.92284 2.84793 25222 ft 409 kts 39°
2026-05-08 21:54 49.94454 2.87681 25711 ft 412 kts 37°
2026-05-08 21:54 49.96700 2.90458 26207 ft 414 kts 35°
2026-05-08 21:54 49.99011 2.93138 26667 ft 416 kts 33°
2026-05-08 21:54 50.01376 2.95760 27120 ft 419 kts 32°
2026-05-08 21:55 50.03781 2.98363 27566 ft 422 kts 32°
2026-05-08 21:55 50.06203 3.00958 27998 ft 425 kts 31°
2026-05-08 21:55 50.08644 3.03573 28428 ft 427 kts 31°
2026-05-08 21:56 50.13571 3.08879 29266 ft 433 kts 31°
2026-05-08 21:56 50.16049 3.11566 29681 ft 435 kts 31°
2026-05-08 21:56 50.18539 3.14273 30130 ft 437 kts 31°
2026-05-08 21:56 50.21044 3.17003 30467 ft 440 kts 31°
2026-05-08 21:57 50.23522 3.19708 30790 ft 442 kts 31°
2026-05-08 21:57 50.26039 3.22461 31282 ft 440 kts 31°
2026-05-08 21:57 50.28516 3.25180 32043 ft 431 kts 31°
2026-05-08 21:57 50.30953 3.27857 32611 ft 427 kts 31°
2026-05-08 21:58 50.33383 3.30524 33020 ft 426 kts 31°
2026-05-08 21:58 50.35809 3.33187 33414 ft 426 kts 31°
2026-05-08 21:58 50.38222 3.35838 33837 ft 425 kts 31°
2026-05-08 21:58 50.40651 3.38511 34223 ft 424 kts 31°
2026-05-08 21:59 50.43065 3.41171 34505 ft 424 kts 31°
2026-05-08 21:59 50.45485 3.43840 34740 ft 426 kts 31°
2026-05-08 21:59 50.47912 3.46521 34983 ft 427 kts 31°
2026-05-08 21:59 50.50345 3.49213 35229 ft 428 kts 31°
2026-05-08 22:00 50.52783 3.51913 35454 ft 430 kts 31°
2026-05-08 22:00 50.55233 3.54632 35695 ft 431 kts 31°
2026-05-08 22:00 50.57681 3.57352 35936 ft 432 kts 31°
2026-05-08 22:00 50.60138 3.60086 36164 ft 433 kts 31°
2026-05-08 22:01 50.62598 3.62826 36386 ft 434 kts 32°
2026-05-08 22:01 50.65071 3.65584 36611 ft 435 kts 32°
2026-05-08 22:01 50.67547 3.68350 36827 ft 436 kts 32°
2026-05-08 22:01 50.70022 3.71119 37051 ft 437 kts 32°
2026-05-08 22:02 50.72503 3.73897 37265 ft 438 kts 32°
2026-05-08 22:02 50.74953 3.76645 37555 ft 437 kts 32°
2026-05-08 22:02 50.77462 3.79463 37763 ft 438 kts 32°
2026-05-08 22:02 50.79918 3.82225 37930 ft 440 kts 32°
2026-05-08 22:03 50.82415 3.85035 38108 ft 441 kts 32°
2026-05-08 22:03 50.84915 3.87852 38289 ft 442 kts 32°
2026-05-08 22:03 50.87419 3.90679 38466 ft 443 kts 32°
2026-05-08 22:03 50.89928 3.93515 38655 ft 444 kts 32°
2026-05-08 22:04 50.92440 3.96359 38820 ft 445 kts 32°
2026-05-08 22:04 50.94960 3.99214 38955 ft 445 kts 33°
2026-05-08 22:04 50.97482 4.02077 39084 ft 446 kts 33°
2026-05-08 22:05 51.02538 4.07828 39125 ft 447 kts 33°
2026-05-08 22:05 51.07559 4.13632 39127 ft 447 kts 36°
2026-05-08 22:06 51.12351 4.19949 39130 ft 448 kts 37°
2026-05-08 22:06 51.17106 4.26379 39128 ft 448 kts 38°
2026-05-08 22:07 51.21845 4.32822 39129 ft 448 kts 38°
2026-05-08 22:07 51.26578 4.39280 39126 ft 448 kts 38°
2026-05-08 22:08 51.31306 4.45750 39132 ft 448 kts 38°
2026-05-08 22:08 51.36002 4.52195 39135 ft 448 kts 38°
2026-05-08 22:09 51.40730 4.58701 39135 ft 448 kts 38°
2026-05-08 22:09 51.45450 4.65217 39132 ft 448 kts 38°
2026-05-08 22:10 51.50164 4.71741 39151 ft 448 kts 38°
2026-05-08 22:10 51.54871 4.78274 39154 ft 447 kts 38°
2026-05-08 22:11 51.59575 4.84821 39154 ft 447 kts 38°
2026-05-08 22:11 51.64281 4.91391 39157 ft 447 kts 38°
2026-05-08 22:12 51.68980 4.97969 39151 ft 448 kts 38°
2026-05-08 22:12 51.73675 5.04560 39146 ft 448 kts 38°
2026-05-08 22:13 51.78366 5.11165 39143 ft 448 kts 38°
2026-05-08 22:13 51.83029 5.17749 39140 ft 448 kts 38°
2026-05-08 22:14 51.87715 5.24384 39134 ft 448 kts 38°
2026-05-08 22:14 51.92401 5.31039 39145 ft 448 kts 38°
2026-05-08 22:15 51.97077 5.37700 39147 ft 446 kts 38°
2026-05-08 22:15 52.01744 5.44365 39149 ft 447 kts 39°
2026-05-08 22:16 52.06383 5.51011 39151 ft 448 kts 39°
2026-05-08 22:16 52.11060 5.57730 39152 ft 448 kts 39°
2026-05-08 22:17 52.15729 5.64457 39166 ft 448 kts 39°
2026-05-08 22:17 52.20391 5.71194 39158 ft 448 kts 39°
2026-05-08 22:18 52.25050 5.77946 39156 ft 448 kts 39°
2026-05-08 22:18 52.29706 5.84714 39159 ft 448 kts 39°
2026-05-08 22:19 52.34358 5.91495 39160 ft 448 kts 39°
2026-05-08 22:19 52.39009 5.98296 39164 ft 448 kts 39°
2026-05-08 22:20 52.43661 6.05117 39165 ft 449 kts 39°
2026-05-08 22:20 52.48280 6.11911 39165 ft 449 kts 39°
2026-05-08 22:21 52.52928 6.18767 39165 ft 449 kts 39°
2026-05-08 22:21 52.57568 6.25632 39167 ft 449 kts 39°
2026-05-08 22:22 52.61458 6.31403 39174 ft 449 kts 39°
2026-05-08 22:22 52.66073 6.38267 39168 ft 450 kts 39°
2026-05-08 22:23 52.70718 6.45197 39176 ft 450 kts 39°
2026-05-08 22:23 52.75354 6.52136 39178 ft 450 kts 39°
2026-05-08 22:24 52.79982 6.59082 39185 ft 449 kts 39°
2026-05-08 22:24 52.84578 6.66002 39184 ft 449 kts 40°
2026-05-08 22:25 52.89228 6.73023 39186 ft 450 kts 40°
2026-05-08 22:25 52.93819 6.79977 39189 ft 450 kts 40°
2026-05-08 22:26 52.98441 6.86999 39184 ft 450 kts 40°
2026-05-08 22:26 53.03052 6.94025 39185 ft 450 kts 40°
2026-05-08 22:27 53.07662 7.01072 39189 ft 450 kts 40°
2026-05-08 22:27 53.12271 7.08137 39182 ft 450 kts 40°
2026-05-08 22:28 53.16874 7.15216 39179 ft 450 kts 40°
2026-05-08 22:28 53.21469 7.22304 39180 ft 450 kts 40°
2026-05-08 22:29 53.26028 7.29358 39194 ft 450 kts 40°
2026-05-08 22:29 53.30610 7.36470 39189 ft 450 kts 40°
2026-05-08 22:30 53.35193 7.43603 39182 ft 450 kts 40°
2026-05-08 22:30 53.39767 7.50746 39190 ft 450 kts 40°
2026-05-08 22:31 53.44336 7.57903 39185 ft 450 kts 40°
2026-05-08 22:31 53.48906 7.65083 39179 ft 450 kts 40°
2026-05-08 22:32 53.53466 7.72269 39184 ft 450 kts 40°
2026-05-08 22:32 53.58029 7.79485 39184 ft 450 kts 41°
2026-05-08 22:33 53.62590 7.86716 39186 ft 450 kts 41°
2026-05-08 22:33 53.67145 7.93964 39190 ft 450 kts 41°
2026-05-08 22:34 53.71700 8.01232 39197 ft 450 kts 41°
2026-05-08 22:34 53.76216 8.08461 39201 ft 450 kts 41°
2026-05-08 22:35 53.80766 8.15768 39206 ft 450 kts 41°
2026-05-08 22:35 53.85301 8.23075 39208 ft 450 kts 41°
2026-05-08 22:36 53.89840 8.30408 39214 ft 450 kts 41°
2026-05-08 22:36 53.94371 8.37754 39213 ft 450 kts 41°
2026-05-08 22:37 53.98895 8.45111 39218 ft 451 kts 41°
2026-05-08 22:37 54.03426 8.52502 39217 ft 452 kts 41°
2026-05-08 22:38 54.07959 8.59921 39223 ft 452 kts 41°
2026-05-08 22:38 54.12488 8.67358 39223 ft 452 kts 41°
2026-05-08 22:39 54.16980 8.74757 39226 ft 452 kts 41°
2026-05-08 22:39 54.21502 8.82229 39226 ft 452 kts 42°
2026-05-08 22:40 54.26015 8.89709 39233 ft 452 kts 42°
2026-05-08 22:40 54.30524 8.97208 39228 ft 452 kts 42°
2026-05-08 22:41 54.35029 9.04724 39228 ft 452 kts 42°
2026-05-08 22:41 54.39531 9.12260 39231 ft 452 kts 42°
2026-05-08 22:42 54.44032 9.19818 39235 ft 453 kts 42°
2026-05-08 22:42 54.48536 9.27405 39235 ft 453 kts 42°
2026-05-08 22:43 54.53042 9.35021 39238 ft 453 kts 42°
2026-05-08 22:43 54.57505 9.42589 39238 ft 453 kts 42°
2026-05-08 22:44 54.61995 9.50227 39240 ft 453 kts 42°
2026-05-08 22:44 54.66482 9.57886 38971 ft 453 kts 43°
2026-05-08 22:44 54.68723 9.61721 38708 ft 452 kts 43°
2026-05-08 22:45 54.70958 9.65552 38435 ft 452 kts 42°
2026-05-08 22:45 54.73191 9.69386 38162 ft 451 kts 42°
2026-05-08 22:45 54.75413 9.73207 37893 ft 450 kts 42°
2026-05-08 22:45 54.77623 9.77014 37631 ft 449 kts 42°
2026-05-08 22:46 54.79811 9.80787 37371 ft 448 kts 42°
2026-05-08 22:46 54.82020 9.84605 37113 ft 449 kts 42°
2026-05-08 22:46 54.84231 9.88430 36866 ft 448 kts 42°
2026-05-08 22:46 54.86437 9.92255 36620 ft 448 kts 42°
2026-05-08 22:47 54.88631 9.96066 36171 ft 445 kts 42°
2026-05-08 22:47 54.90828 9.99886 35485 ft 448 kts 42°
2026-05-08 22:47 54.93040 10.03738 34756 ft 451 kts 41°
2026-05-08 22:47 54.95264 10.07617 33946 ft 455 kts 41°
2026-05-08 22:48 54.97510 10.11540 33093 ft 458 kts 41°
2026-05-08 22:48 54.99756 10.15473 32288 ft 459 kts 41°
2026-05-08 22:48 55.02010 10.19427 31461 ft 461 kts 41°
2026-05-08 22:48 55.04265 10.23388 30843 ft 458 kts 41°
2026-05-08 22:49 55.06497 10.27321 30227 ft 454 kts 41°
2026-05-08 22:49 55.10909 10.35107 28901 ft 446 kts 42°
2026-05-08 22:49 55.13081 10.38948 28256 ft 442 kts 42°
2026-05-08 22:50 55.15234 10.42762 27638 ft 439 kts 42°
2026-05-08 22:50 55.17369 10.46550 27002 ft 436 kts 42°
2026-05-08 22:50 55.19489 10.50318 26364 ft 433 kts 43°
2026-05-08 22:50 55.21570 10.54020 25741 ft 431 kts 43°
2026-05-08 22:51 55.23689 10.57800 25185 ft 426 kts 43°
2026-05-08 22:51 55.25757 10.61522 24597 ft 425 kts 45°
2026-05-08 22:51 55.27488 10.65621 24039 ft 425 kts 60°
2026-05-08 22:51 55.28603 10.70428 23413 ft 425 kts 70°
2026-05-08 22:52 55.29470 10.75366 22815 ft 421 kts 72°
2026-05-08 22:52 55.30292 10.80275 22209 ft 416 kts 72°
2026-05-08 22:52 55.31107 10.85147 21635 ft 412 kts 72°
2026-05-08 22:52 55.31916 10.89963 20937 ft 411 kts 72°
2026-05-08 22:53 55.32718 10.94721 20455 ft 404 kts 72°
2026-05-08 22:53 55.33510 10.99459 19826 ft 402 kts 72°
2026-05-08 22:53 55.34291 11.04151 19251 ft 399 kts 73°
2026-05-08 22:53 55.35054 11.08755 18682 ft 396 kts 72°
2026-05-08 22:54 55.35819 11.13371 18166 ft 390 kts 73°
2026-05-08 22:54 55.36571 11.17924 17506 ft 387 kts 73°
2026-05-08 22:54 55.37317 11.22445 16904 ft 383 kts 73°
2026-05-08 22:54 55.38051 11.26908 16343 ft 378 kts 73°
2026-05-08 22:55 55.38779 11.31345 15741 ft 376 kts 73°
2026-05-08 22:55 55.39496 11.35730 15190 ft 371 kts 73°
2026-05-08 22:55 55.40206 11.40077 14621 ft 368 kts 74°
2026-05-08 22:55 55.40906 11.44375 14116 ft 363 kts 74°
2026-05-08 22:56 55.41596 11.48622 13557 ft 358 kts 74°
2026-05-08 22:56 55.42269 11.52776 13202 ft 348 kts 74°
2026-05-08 22:56 55.42919 11.56796 12956 ft 335 kts 75°
2026-05-08 22:56 55.43550 11.60682 12750 ft 323 kts 74°
2026-05-08 22:57 55.44419 11.64241 12566 ft 312 kts 61°
2026-05-08 22:57 55.45566 11.67413 12377 ft 301 kts 57°
2026-05-08 22:57 55.46732 11.70411 12161 ft 294 kts 57°
2026-05-08 22:57 55.47891 11.73372 11684 ft 294 kts 57°
2026-05-08 22:58 55.49051 11.76347 11251 ft 294 kts 57°
2026-05-08 22:58 55.50201 11.79307 10844 ft 292 kts 57°
2026-05-08 22:58 55.51340 11.82248 10471 ft 289 kts 57°
2026-05-08 22:58 55.52461 11.85150 10182 ft 284 kts 57°
2026-05-08 22:59 55.53564 11.88020 9910 ft 281 kts 57°
2026-05-08 22:59 55.54658 11.90880 9663 ft 281 kts 57°
2026-05-08 22:59 55.55734 11.93695 9409 ft 279 kts 57°
2026-05-08 22:59 55.56817 11.96535 9156 ft 278 kts 58°
2026-05-08 23:00 55.57894 11.99362 8900 ft 276 kts 58°
2026-05-08 23:00 55.58964 12.02173 8651 ft 275 kts 58°
2026-05-08 23:00 55.60026 12.04968 8398 ft 273 kts 58°
2026-05-08 23:00 55.61084 12.07754 8147 ft 272 kts 58°
2026-05-08 23:01 55.62230 12.10411 7900 ft 272 kts 48°
2026-05-08 23:01 55.63607 12.12710 7609 ft 272 kts 43°
2026-05-08 23:01 55.65038 12.14888 7319 ft 270 kts 43°
2026-05-08 23:01 55.66468 12.17038 7071 ft 269 kts 43°
2026-05-08 23:02 55.67755 12.19391 6825 ft 265 kts 57°
2026-05-08 23:02 55.68493 12.22322 6578 ft 260 kts 80°
2026-05-08 23:02 55.68482 12.25488 6330 ft 257 kts 103°
2026-05-08 23:02 55.67751 12.28308 6108 ft 257 kts 126°
2026-05-08 23:03 55.66509 12.30586 5863 ft 257 kts 137°
2026-05-08 23:03 55.65146 12.32645 5616 ft 257 kts 139°
2026-05-08 23:03 55.63778 12.34664 5400 ft 256 kts 139°
2026-05-08 23:03 55.62381 12.36601 5153 ft 255 kts 146°
2026-05-08 23:04 55.60741 12.37796 4908 ft 258 kts 167°
2026-05-08 23:04 55.58938 12.37653 4676 ft 265 kts 193°
2026-05-08 23:04 55.57309 12.36114 4428 ft 269 kts 214°
2026-05-08 23:04 55.55875 12.33999 4198 ft 267 kts 218°
2026-05-08 23:05 55.54495 12.31823 3947 ft 265 kts 218°
2026-05-08 23:05 55.53118 12.29658 3688 ft 265 kts 218°
2026-05-08 23:05 55.51660 12.27699 3439 ft 261 kts 204°
2026-05-08 23:05 55.49966 12.26840 3200 ft 251 kts 178°
2026-05-08 23:06 55.48299 12.27431 2974 ft 243 kts 152°
2026-05-08 23:06 55.46934 12.29112 2775 ft 239 kts 137°
2026-05-08 23:06 55.45810 12.31245 2726 ft 237 kts 122°
2026-05-08 23:06 55.45174 12.33875 2733 ft 238 kts 102°
2026-05-08 23:07 55.45145 12.36764 2724 ft 233 kts 80°
2026-05-08 23:07 55.45753 12.39300 2720 ft 220 kts 57°
2026-05-08 23:07 55.46755 12.41220 2718 ft 207 kts 46°
2026-05-08 23:07 55.47812 12.42862 2730 ft 201 kts 45°
2026-05-08 23:08 55.48879 12.44449 2735 ft 201 kts 45°
2026-05-08 23:08 55.49941 12.46063 2570 ft 202 kts 45°
2026-05-08 23:08 55.50992 12.47665 2315 ft 196 kts 45°
2026-05-08 23:08 55.51987 12.49190 2017 ft 182 kts 46°
2026-05-08 23:09 55.52908 12.50607 1744 ft 169 kts 46°
2026-05-08 23:09 55.53760 12.51920 1507 ft 155 kts 46°
2026-05-08 23:09 55.54291 12.52737 1363 ft 145 kts 47°
2026-05-08 23:09 55.55009 12.53844 1178 ft 135 kts 47°
2026-05-08 23:10 55.55709 12.54929 999 ft 134 kts 47°
2026-05-08 23:10 55.56410 12.56015 811 ft 134 kts 45°
2026-05-08 23:10 55.57113 12.57101 612 ft 136 kts 44°
2026-05-08 23:10 55.57820 12.58182 355 ft 132 kts 43°
2026-05-08 23:11 55.58529 12.59255 233 ft 135 kts 44°
2026-05-08 23:11 55.59220 12.60349 62 ft 131 kts 44°
2026-05-08 23:11 55.59887 12.61383 25 ft 119 kts 43°
2026-05-08 23:11 55.60377 12.62140 20 ft 49 kts 39°
2026-05-08 23:12 55.60574 12.62316 26 ft 29 kts 17°
2026-05-08 23:12 55.60760 12.62395 29 ft 23 kts 21°
2026-05-08 23:12 55.60803 12.62434 26 ft 0 kts 32°
2026-05-08 23:12 55.60811 12.62443 28 ft 5 kts 32°
2026-05-08 23:13 55.60851 12.62494 28 ft 10 kts 40°
2026-05-08 23:13 55.60921 12.62604 22 ft 17 kts 41°
2026-05-08 23:13 55.61020 12.62756 22 ft 21 kts 41°
2026-05-08 23:13 55.61136 12.62935 29 ft 22 kts 40°
2026-05-08 23:14 55.61261 12.63124 28 ft 24 kts 41°
2026-05-08 23:14 55.61395 12.63338 25 ft 28 kts 42°
2026-05-08 23:14 55.61548 12.63570 20 ft 30 kts 41°
2026-05-08 23:14 55.61701 12.63814 23 ft 27 kts 43°
2026-05-08 23:15 55.61729 12.63859 24 ft 3 kts 43°
2026-05-08 23:15 55.61758 12.63906 27 ft 9 kts 43°
2026-05-08 23:15 55.61819 12.63997 26 ft 15 kts 39°
2026-05-08 23:15 55.61918 12.64107 26 ft 19 kts 26°
2026-05-08 23:16 55.62056 12.64224 22 ft 25 kts 25°
2026-05-08 23:16 55.62224 12.64372 21 ft 28 kts 39°
2026-05-08 23:16 55.62330 12.64651 24 ft 28 kts 28°
2026-05-08 23:16 55.62526 12.64652 25 ft 31 kts 358°
2026-05-08 23:17 55.62625 12.64632 24 ft 8 kts 329°
2026-05-08 23:17 55.62645 12.64563 24 ft 0 kts 281°
2026-05-08 23:17 55.62646 12.64556 24 ft 2 kts 286°
2026-05-08 23:17 55.62647 12.64550 28 ft 0 kts 285°